| time (UTC) | temp F | wind direction | speed MPH | gust MPH | rain 1hr in | rain 24hr in | rain mn in | humidity % | barometer mb |
| 20260506095214 | 75 | 127 | 0.0 | 1.0 | 0.00 | 0.00 | 0.00 | 97 | |
| 20260506092211 | 75 | 142 | 0.0 | 1.0 | 0.00 | 0.00 | 0.00 | 97 | |
| 20260506085211 | 76 | 108 | 1.0 | 1.0 | 0.00 | 0.00 | 0.00 | 97 | |
| 20260506082208 | 76 | 119 | 1.0 | 2.0 | 0.00 | 0.00 | 0.00 | 97 | |
| 20260506072159 | 76 | 153 | 2.0 | 2.0 | 0.00 | 0.00 | 0.00 | 96 | |
| 20260506062154 | 76 | 133 | 1.0 | 2.0 | 0.00 | 0.00 | 0.00 | 95 | |
| 20260506042148 | 77 | 120 | 2.0 | 5.0 | 0.00 | 0.00 | 0.00 | 92 | |
| 20260506035149 | 77 | 175 | 1.0 | 2.0 | 0.00 | 0.00 | 0.00 | 91 | |
| 20260506032148 | 78 | 120 | 0.0 | 0.0 | 0.00 | 0.00 | 0.00 | 90 | |
| 20260506025148 | 78 | 86 | 1.0 | 2.0 | 0.00 | 0.00 | 0.00 | 89 | |
| 20260506022147 | 78 | 147 | 0.0 | 2.0 | 0.00 | 0.00 | 0.00 | 88 | |
| 20260506015142 | 78 | 92 | 1.0 | 1.0 | 0.00 | 0.00 | 0.00 | 88 | |
| 20260506012141 | 79 | 129 | 0.0 | 1.0 | 0.00 | 0.00 | 0.00 | 87 | |
| 20260506005136 | 80 | 86 | 1.0 | 3.0 | 0.00 | 0.00 | 0.00 | 85 | |
| 20260506002131 | 80 | 144 | 1.0 | 2.0 | 0.00 | 0.00 | 0.00 | 84 | |
| 20260505235131 | 82 | 40 | 2.0 | 6.0 | 0.00 | 0.00 | 0.00 | 82 | |
| 20260505232131 | 83 | 138 | 3.0 | 3.0 | 0.00 | 0.00 | 0.00 | 80 | |
| 20260505225131 | 83 | 123 | 3.0 | 5.0 | 0.00 | 0.00 | 0.00 | 79 | |
| 20260505222128 | 84 | 151 | 1.0 | 3.0 | 0.00 | 0.00 | 0.00 | 78 | |
| 20260505215124 | 85 | 72 | 2.0 | 5.0 | 0.00 | 0.00 | 0.00 | 77 | |
| 20260505212124 | 85 | 255 | 1.0 | 3.0 | 0.00 | 0.00 | 0.00 | 78 | |
| 20260505205124 | 85 | 187 | 3.0 | 6.0 | 0.00 | 0.00 | 0.00 | 77 | |
| 20260505202122 | 85 | 191 | 4.0 | 8.0 | 0.00 | 0.00 | 0.00 | 77 | |
| 20260505195122 | 85 | 123 | 4.0 | 10.0 | 0.00 | 0.00 | 0.00 | 77 | |
| 20260505192123 | 84 | 150 | 3.0 | 6.0 | 0.00 | 0.00 | 0.00 | 79 | |
| 20260505185120 | 83 | 96 | 5.0 | 6.0 | 0.00 | 0.00 | 0.00 | 81 | |
| 20260505182118 | 82 | 220 | 3.0 | 8.0 | 0.00 | 0.00 | 0.00 | 82 | |
| 20260505175115 | 81 | 129 | 5.0 | 7.0 | 0.00 | 0.00 | 0.00 | 85 | |
| 20260505172114 | 79 | 162 | 1.0 | 3.0 | 0.00 | 0.00 | 0.00 | 88 | |
| 20260505165114 | 80 | 107 | 1.0 | 6.0 | 0.00 | 0.00 | 0.00 | 86 | |
| 20260505162109 | 79 | 115 | 3.0 | 6.0 | 0.00 | 0.00 | 0.00 | 88 | |
| 20260505152104 | 77 | 88 | 1.0 | 8.0 | 0.00 | 0.00 | 0.00 | 90 | |
| 20260505122050 | 71 | 93 | 0.0 | 2.0 | 0.00 | 0.00 | 0.00 | 98 | |
| 20260505115045 | 71 | 127 | 0.0 | 0.0 | 0.00 | 0.00 | 0.00 | 98 | |
| 20260505112044 | 71 | 130 | 1.0 | 2.0 | 0.00 | 0.00 | 0.00 | 97 | |
| 20260505102038 | 70 | 136 | 1.0 | 3.0 | 0.00 | 0.00 | 0.00 | 97 |